Content
SEND FEEDBACK

Daily
Averages
Monthly
Summary
United States of America

GRASS VALLEY, CALIFORNIA


Home > North America > United States > California
Elevation: 2628 feet     Latitude: 39 16N     Longitude: 121 02W

WEATHER
 
SELECT A DAY
Number of Records: 71,097;   Date Range: 9/21/11 - 12/18/14
 
SHARE

PRINT THIS DATA

[ ← Previous Day ]
WEATHER ALMANAC - JANUARY 11, 2014
[ Next Day → ]
[ °C ]   °F
Weather ElementAverageHighLow
Temperature44.2 °F50 °F (1:35 am)39.2 °F (11:55 pm)
Dewpoint39.5 °F44.6 °F (4:55 pm)33.8 °F (3:15 am)
Humidity84.9 %100 % (3:15 pm)58 % (1:35 am)
Barometer30.18 in30.24 in (11:15 pm)30.12 in (2:15 pm)
Wind Speed4.6 mph10.4 mph (10:55 am)
Wind Gust18.4 mph (1:55 pm)
Weather ElementAverage
Visibility4.5 mi
Wind DirectionESE (124.2 °)

Weather ElementTotal
Precipitation0.39 in
Heating Degree Days20.4 (Base 65)
Averaged from 71 records on January 11, 2014
WEATHER CONDITIONS BREAKOUT
WIND DIRECTION BREAKOUT
WEATHER BY HOUR - JANUARY 11, 2014
[ °C ]   °F
Local TimeTemperatureDewpointHumidityBarometerVisibilityWind DirectionWind SpeedGust SpeedPrecipitationEventsConditions
12:35 AM48.2 °F35.6 °F62 %30.21 in10.0 miCalmClear
12:55 AM48.2 °F35.6 °F62 %30.20 in10.0 miCalmClear
1:15 AM48.2 °F35.6 °F62 %30.20 in10.0 miCalmClear
1:35 AM50.0 °F35.6 °F58 %30.19 in10.0 miCalmClear
1:55 AM50.0 °F35.6 °F58 %30.19 in10.0 miCalmClear
2:15 AM50.0 °F35.6 °F58 %30.19 in10.0 miCalmClear
2:35 AM46.4 °F35.6 °F66 %30.19 in10.0 miSSE (150°)3.5 mphClear
2:55 AM48.2 °F35.6 °F62 %30.19 in10.0 miCalmClear
3:15 AM48.2 °F33.8 °F58 %30.19 in10.0 miCalmClear
3:35 AM48.2 °F35.6 °F62 %30.19 in10.0 miCalmClear
3:55 AM48.2 °F35.6 °F62 %30.20 in10.0 miSE (140°)3.5 mphClear
4:15 AM46.4 °F35.6 °F66 %30.19 in10.0 miSE (140°)3.5 mphClear
4:35 AM44.6 °F35.6 °F71 %30.19 in10.0 miSSE (150°)5.8 mphClear
4:55 AM46.4 °F35.6 °F66 %30.19 in10.0 miSE (140°)4.6 mphClear
5:15 AM46.4 °F35.6 °F66 %30.18 in10.0 miCalmPartly Cloudy
5:35 AM44.6 °F35.6 °F71 %30.19 in10.0 miSSE (150°)6.9 mphClear
5:55 AM44.6 °F35.6 °F71 %30.19 in10.0 miSE (140°)3.5 mphClear
6:15 AM44.6 °F35.6 °F71 %30.18 in10.0 miSE (130°)3.5 mphClear
6:35 AM44.6 °F35.6 °F71 %30.19 in10.0 miSSE (150°)3.5 mphPartly Cloudy
6:55 AM44.6 °F35.6 °F71 %30.20 in10.0 miSSE (160°)4.6 mphScattered Clouds
7:15 AM44.6 °F35.6 °F71 %30.20 in10.0 miSE (130°)5.8 mphPartly Cloudy
7:35 AM44.6 °F37.4 °F76 %30.20 in10.0 miSE (140°)5.8 mphClear
7:55 AM44.6 °F37.4 °F76 %30.19 in7.0 miSE (130°)6.9 mphPartly Cloudy
8:15 AM44.6 °F37.4 °F76 %30.19 in6.0 miSE (140°)8.1 mphMostly Cloudy
8:35 AM44.6 °F37.4 °F76 %30.19 in7.0 miSE (140°)8.1 mphMostly Cloudy
8:55 AM44.6 °F37.4 °F76 %30.18 in7.0 miSE (140°)9.2 mphScattered Clouds
9:15 AM46.4 °F37.4 °F71 %30.20 in6.0 miSSE (160°)5.8 mphPartly Cloudy
9:35 AM46.4 °F37.4 °F71 %30.20 in7.0 miSouth (170°)3.5 mphMostly Cloudy
9:55 AM46.4 °F39.2 °F76 %30.23 in3.0 miSouth (170°)3.5 mphOvercast
10:15 AM44.6 °F41.0 °F87 %30.22 in5.0 miSSE (150°)8.1 mphOvercast
10:35 AM44.6 °F41.0 °F87 %30.20 in2.5 miSSE (160°)6.9 mphOvercast
10:55 AM44.6 °F41.0 °F87 %30.19 in3.0 miSE (140°)10.4 mph0.01 inMostly Cloudy
11:15 AM44.6 °F41.0 °F87 %30.20 in3.0 miSSE (150°)8.1 mphMostly Cloudy
11:35 AM44.6 °F41.0 °F87 %30.19 in1.5 miSouth (180°)5.8 mph0.06 inOvercast
11:55 AM42.8 °F41.0 °F93 %30.16 in1.8 miSSE (150°)10.4 mph0.08 inOvercast
12:15 PM42.8 °F41.0 °F93 %30.17 in1.2 miCalm0.03 inOvercast
12:35 PM42.8 °F41.0 °F93 %30.17 in0.5 miSouth (180°)3.5 mph0.10 inOvercast
12:55 PM42.8 °F41.0 °F93 %30.16 in0.5 miSSE (150°)8.1 mph0.11 inOvercast
1:15 PM42.8 °F41.0 °F93 %30.15 in0.2 miSE (140°)9.2 mphOvercast
1:35 PM42.8 °F41.0 °F93 %30.14 in0.5 miSE (140°)8.1 mphOvercast
1:55 PM42.8 °F41.0 °F93 %30.13 in0.2 miSE (140°)10.4 mph18.4 mphOvercast
2:15 PM42.8 °F41.0 °F93 %30.12 in0.2 miSE (140°)9.2 mph17.3 mphOvercast
2:35 PM42.8 °F41.0 °F93 %30.12 in0.2 miSE (140°)5.8 mph18.4 mphOvercast
2:55 PM42.8 °F41.0 °F93 %30.13 in0.2 miSSE (160°)6.9 mphOvercast
3:15 PM42.8 °F42.8 °F100 %30.13 in0.2 miSouth (170°)4.6 mphOvercast
3:35 PM42.8 °F42.8 °F100 %30.13 in0.2 miSouth (170°)4.6 mphOvercast
3:55 PM42.8 °F42.8 °F100 %30.14 in0.2 miCalmOvercast
4:15 PM42.8 °F42.8 °F100 %30.13 in0.2 miSouth (170°)5.8 mphOvercast
4:35 PM42.8 °F42.8 °F100 %30.13 in0.2 miSSE (160°)3.5 mphOvercast
4:55 PM44.6 °F44.6 °F100 %30.13 in0.2 miSouth (190°)3.5 mphOvercast
5:15 PM44.6 °F44.6 °F100 %30.14 in0.2 miSouth (190°)3.5 mphOvercast
5:35 PM44.6 °F44.6 °F100 %30.15 in0.2 miSouth (170°)4.6 mphOvercast
5:55 PM44.6 °F44.6 °F100 %30.15 in0.2 miSouth (190°)3.5 mphOvercast
6:15 PM44.6 °F44.6 °F100 %30.16 in0.2 miSouth (180°)5.8 mphOvercast
6:35 PM42.8 °F42.8 °F100 %30.15 in0.2 miSouth (170°)8.1 mphOvercast
6:55 PM42.8 °F42.8 °F100 %30.16 in0.2 miSouth (190°)5.8 mphOvercast
7:15 PM42.8 °F42.8 °F100 %30.17 in0.5 miSSW (200°)3.5 mphOvercast
7:35 PM42.8 °F42.8 °F100 %30.18 in0.8 miSouth (180°)4.6 mphOvercast
7:55 PM42.8 °F42.8 °F100 %30.19 in2.5 miSSE (160°)4.6 mphOvercast
8:15 PM41.0 °F41.0 °F100 %30.19 in2.5 miSouth (170°)4.6 mphOvercast
8:35 PM41.0 °F41.0 °F100 %30.20 in3.0 miSSE (160°)5.8 mphOvercast
8:55 PM41.0 °F41.0 °F100 %30.21 in3.0 miCalmOvercast
9:15 PM41.0 °F41.0 °F100 %30.22 in1.8 miSSE (160°)5.8 mphOvercast
9:35 PM41.0 °F41.0 °F100 %30.22 in1.8 miSouth (170°)3.5 mphOvercast
9:55 PM41.0 °F41.0 °F100 %30.22 in1.5 miSE (130°)4.6 mphOvercast
10:15 PM41.0 °F41.0 °F100 %30.23 in3.0 miSE (130°)4.6 mphOvercast
10:35 PM41.0 °F41.0 °F100 %30.23 in2.5 miSSE (150°)4.6 mphOvercast
10:55 PM41.0 °F41.0 °F100 %30.23 in0.8 miCalmOvercast
11:15 PM41.0 °F41.0 °F100 %30.24 in2.5 miSE (140°)3.5 mphOvercast
11:35 PM41.0 °F41.0 °F100 %30.24 in5.0 miESE (110°)5.8 mphOvercast
11:55 PM39.2 °F39.2 °F100 %30.24 in5.0 miESE (120°)4.6 mphMostly Cloudy
Hourly data recorded from KGOO, located miles away from Grass Valley, California







STORIES FROM OUR PARTNERS